Location: Unspecified
(0.0000°N, 0.0000°E)
Time: 22:29:07
(UTC+01:00)

GP-B - Visible Passes

Search period start: 26 November 2014 00:00
Search period end: 06 December 2014 00:00
Orbit: 635 x 637 km, 89.9° (Epoch: 25 November)

Date Brightness Start Highest point End Pass type
(mag) Time Alt. Az. Time Alt. Az. Time Alt. Az.
26 Nov 5.4 05:06:58 10° SE 05:10:28 23° E 05:14:03 10° NNE visible
27 Nov 3.8 05:28:40 10° SSE 05:33:02 56° E 05:37:23 10° N visible
28 Nov 3.2 05:51:11 10° S 05:55:34 58° W 05:59:56 10° NNW visible
29 Nov 6.0 04:38:52 10° ESE 04:40:51 13° E 04:43:08 10° ENE visible
29 Nov 4.2 06:14:29 10° SSW 06:18:08 24° W 06:21:39 10° NW visible
30 Nov 4.9 04:59:34 10° SSE 05:03:29 31° E 05:07:26 10° NNE visible
01 Dec 3.2 05:21:35 10° S 05:26:02 77° E 05:30:27 10° N visible
02 Dec 3.5 05:44:20 10° SSW 05:48:34 42° W 05:52:45 10° NNW visible
03 Dec 5.7 04:30:58 10° SE 04:33:52 18° E 04:36:58 10° NE visible
03 Dec 4.6 06:08:01 10° SW 06:11:09 18° W 06:14:05 10° NW visible
04 Dec 4.2 04:52:17 10° SSE 04:56:28 41° E 04:59:00 21° NNE visible
05 Dec 2.9 05:14:32 10° S 05:19:00 79° W 05:20:50 35° NNW visible
